Location: Unspecified
(0.0000°N, 0.0000°E)
Time: 17:57:56
(UTC+00:00)

deb r/b Ablestar - Pass Details

Date: 13 November 2025
Orbit: 783 x 882 km, 66.7° (Epoch: 05 December)

Event Time Altitude Azimuth Distance (km) Brightness Sun altitude
Exits shadow 04:07:59 17° 359° (N) 1,868 ? -22.8°
Maximum altitude 04:11:53 52° 70° (ENE) 972 ? -21.9°
Drops below altitude 10° 04:17:07 10° 146° (SE) 2,361 ? -20.7°
Sets 04:19:36 0° 151° (SSE) 3,305 ? -20.1°
